Date String (YYYY-MM-DD hh:mm:ss) UTC,Instrument flags,absolute air pressure of the measurement (hPa),sample flow rate (lpm),inlet stack bypass flow (lpm),air temperature of the measurement (°C),ambient temperature measured by the external sensor (°C),aerosol sample conditioner tube jacket temperature (°C),OPC LED temperature (°C),internal box temperature (°C),relative humidity of the measurement (%),span deviation,mass concentration of particles derived from Lorenz-Mie calculation of OPC scattering (μg/m³),mass concentration of particles derived from Lorenz-Mie calculation of OPC scattering (μg/m³),mass concentration of particles derived from Lorenz-Mie calculation of OPC scattering (μg/m³)
DateTimeUTC,F1_M11,P_M11,Q1_M11,Q2_M11,T1_M11,T2_M11,T3_M11,T4_M11,T5_M11,U1_M11,ZSPAN_M11,X0_M11,X2_M11,X1_M11
2023-07-11 05:00:00,SystemResetWarning,0830.6,5.00,000.00,029.1,027.1,000.0,037.5,030.7,21.3,0000.0,0011.59,0004.65,0003.90
2023-07-11 05:01:00,SystemResetWarning,0830.6,4.99,000.00,029.1,027.4,000.0,037.5,030.7,21.5,0000.0,0011.88,0004.61,0003.90
2023-07-11 05:02:00,SystemResetWarning,0830.6,5.00,000.00,029.1,027.6,000.0,037.6,030.8,21.4,0000.0,0011.75,0004.60,0003.90
2023-07-11 05:03:00,SystemResetWarning,0830.6,4.99,000.00,029.2,027.8,000.0,037.6,030.8,21.3,0000.0,0011.63,0004.58,0003.90
2023-07-11 05:04:00,SystemResetWarning,0830.6,5.01,000.00,029.2,028.0,000.0,037.6,030.9,21.3,0000.0,0011.50,0004.56,0003.90
2023-07-11 05:05:00,SystemResetWarning,0830.6,5.01,000.00,029.3,028.1,000.0,037.6,030.9,21.2,0000.0,0011.63,0004.57,0003.90
2023-07-11 05:06:00,SystemResetWarning,0830.5,4.97,000.00,029.3,027.7,000.0,037.6,031.0,21.0,0000.0,0011.57,0004.53,0003.89
2023-07-11 05:07:00,SystemResetWarning,0830.6,5.00,000.00,029.3,026.0,000.0,037.5,030.8,20.9,0000.0,0011.45,0004.47,0003.89
2023-07-11 05:08:00,SystemResetWarning,0830.4,5.01,000.00,029.2,025.4,000.0,037.4,030.6,20.9,0000.0,0011.50,0004.46,0003.89
2023-07-11 05:09:00,SystemResetWarning,0830.5,5.00,000.00,029.1,025.6,000.0,037.5,030.4,21.4,0000.0,0010.74,0004.50,0003.89
2023-07-11 05:10:00,SystemResetWarning,0830.6,4.99,000.00,029.1,025.9,000.0,037.5,030.4,21.5,0000.0,0009.72,0004.51,0003.88
2023-07-11 05:11:00,SystemResetWarning,0830.5,5.00,000.00,029.1,026.3,000.0,037.5,030.5,21.3,0000.0,0009.21,0004.50,0003.89
2023-07-11 05:12:00,SystemResetWarning,0830.5,5.00,000.00,029.1,026.7,000.0,037.5,030.6,21.3,0000.0,0008.81,0004.50,0003.90
2023-07-11 05:13:00,SystemResetWarning,0830.6,5.01,000.00,029.1,027.0,000.0,037.5,030.6,21.7,0000.0,0008.95,0004.50,0003.89
2023-07-11 05:14:00,SystemResetWarning,0830.6,5.00,000.00,029.1,027.3,000.0,037.6,030.7,21.6,0000.0,0009.12,0004.52,0003.88
2023-07-11 05:15:00,SystemResetWarning,0830.6,4.99,000.00,029.1,027.5,000.0,037.6,030.8,21.6,0000.0,0009.18,0004.54,0003.87
2023-07-11 05:16:00,SystemResetWarning,0830.6,5.00,000.00,029.2,027.7,000.0,037.6,030.8,21.2,0000.0,0008.98,0004.50,0003.87
2023-07-11 05:17:00,SystemResetWarning,0830.6,5.00,000.00,029.2,027.9,000.0,037.6,030.9,21.2,0000.0,0008.95,0004.50,0003.86
2023-07-11 05:18:00,SystemResetWarning,0830.7,5.01,000.00,029.2,028.0,000.0,037.6,030.9,21.0,0000.0,0009.44,0004.51,0003.86
2023-07-11 05:19:00,SystemResetWarning,0830.7,5.00,000.00,029.3,028.1,000.0,037.7,031.0,21.1,0000.0,0009.50,0004.51,0003.85
2023-07-11 05:20:00,SystemResetWarning,0830.7,4.99,000.00,029.3,028.1,000.0,037.7,031.0,21.0,0000.0,0009.71,0004.47,0003.85
2023-07-11 05:21:00,SystemResetWarning,0830.7,4.98,000.00,029.3,026.7,000.0,037.6,030.8,20.9,0000.0,0009.59,0004.44,0003.84
2023-07-11 05:22:00,SystemResetWarning,0830.6,5.01,000.00,029.2,025.5,000.0,037.5,030.6,21.0,0000.0,0009.56,0004.43,0003.82
2023-07-11 05:23:00,SystemResetWarning,0830.7,5.01,000.00,029.1,025.5,000.0,037.5,030.4,20.9,0000.0,0010.25,0004.41,0003.80
2023-07-11 05:24:00,SystemResetWarning,0830.7,5.00,000.00,029.1,025.8,000.0,037.5,030.4,21.0,0000.0,0010.89,0004.37,0003.79
2023-07-11 05:25:00,SystemResetWarning,0830.7,5.00,000.00,029.1,026.2,000.0,037.5,030.5,20.8,0000.0,0010.64,0004.30,0003.77
2023-07-11 05:26:00,SystemResetWarning,0830.7,5.00,000.00,029.1,026.6,000.0,037.5,030.6,20.8,0000.0,0010.50,0004.27,0003.75
2023-07-11 05:27:00,SystemResetWarning,0830.7,4.99,000.00,029.1,026.9,000.0,037.6,030.6,20.7,0000.0,0010.60,0004.27,0003.73
2023-07-11 05:28:00,SystemResetWarning,0830.7,5.00,000.00,029.1,027.2,000.0,037.6,030.7,20.5,0000.0,0010.85,0004.27,0003.72
2023-07-11 05:29:00,SystemResetWarning,0830.7,4.99,000.00,029.1,027.4,000.0,037.6,030.8,20.2,0000.0,0010.98,0004.25,0003.70
2023-07-11 05:30:00,SystemResetWarning,0830.7,4.99,000.00,029.2,027.7,000.0,037.6,030.8,20.1,0000.0,0011.32,0004.22,0003.69
2023-07-11 05:31:00,SystemResetWarning,0830.7,5.00,000.00,029.2,027.8,000.0,037.6,030.9,20.4,0000.0,0010.85,0004.18,0003.66
2023-07-11 05:32:00,SystemResetWarning,0830.7,5.02,000.00,029.2,028.0,000.0,037.6,030.9,20.7,0000.0,0010.67,0004.19,0003.66
2023-07-11 05:33:00,SystemResetWarning,0830.8,5.00,000.00,029.3,028.1,000.0,037.7,031.0,20.4,0000.0,0010.33,0004.14,0003.64
2023-07-11 05:34:00,SystemResetWarning,0830.8,5.00,000.00,029.3,028.2,000.0,037.7,031.0,20.7,0000.0,0009.62,0004.13,0003.63
2023-07-11 05:35:00,SystemResetWarning,0830.8,4.98,000.00,029.4,027.5,000.0,037.7,031.0,20.1,0000.0,0008.80,0004.13,0003.62
2023-07-11 05:36:00,SystemResetWarning,0830.7,5.00,000.00,029.3,025.8,000.0,037.5,030.7,19.6,0000.0,0008.79,0004.15,0003.61
2023-07-11 05:37:00,SystemResetWarning,0830.7,5.01,000.00,029.2,025.5,000.0,037.5,030.6,20.0,0000.0,0008.79,0004.15,0003.61
2023-07-11 05:38:00,SystemResetWarning,0830.7,5.01,000.00,029.1,025.7,000.0,037.5,030.4,19.6,0000.0,0008.70,0004.12,0003.60
2023-07-11 05:39:00,SystemResetWarning,0830.7,4.99,000.00,029.1,026.1,000.0,037.5,030.5,19.5,0000.0,0008.68,0004.08,0003.59
2023-07-11 05:40:00,SystemResetWarning,0830.7,4.99,000.00,029.1,026.5,000.0,037.6,030.5,19.6,0000.0,0007.98,0004.05,0003.58
2023-07-11 05:41:00,SystemResetWarning,0830.7,5.01,000.00,029.1,026.8,000.0,037.6,030.6,20.0,0000.0,0007.80,0004.08,0003.58
2023-07-11 05:42:00,SystemResetWarning,0830.7,5.02,000.00,029.1,027.1,000.0,037.6,030.7,19.9,0000.0,0007.85,0004.11,0003.57
2023-07-11 05:43:00,SystemResetWarning,0830.7,4.99,000.00,029.1,027.4,000.0,037.6,030.8,19.8,0000.0,0007.82,0004.08,0003.55
2023-07-11 05:44:00,SystemResetWarning,0830.7,4.99,000.00,029.2,027.6,000.0,037.6,030.8,19.8,0000.0,0007.84,0004.04,0003.54
2023-07-11 05:45:00,SystemResetWarning,0830.7,5.01,000.00,029.2,027.8,000.0,037.6,030.9,20.0,0000.0,0008.05,0004.03,0003.52
2023-07-11 05:46:00,SystemResetWarning,0830.6,5.01,000.00,029.3,027.9,000.0,037.7,030.9,20.0,0000.0,0007.94,0004.01,0003.50
2023-07-11 05:47:00,SystemResetWarning,0830.6,5.00,000.00,029.3,028.1,000.0,037.7,031.0,19.4,0000.0,0007.75,0003.95,0003.48
2023-07-11 05:48:00,SystemResetWarning,0830.7,5.00,000.00,029.3,028.2,000.0,037.7,031.0,19.8,0000.0,0007.66,0003.92,0003.47
2023-07-11 05:49:00,SystemResetWarning,0830.7,4.99,000.00,029.4,028.0,000.0,037.7,031.0,20.4,0000.0,0007.65,0003.93,0003.46
2023-07-11 05:50:00,SystemResetWarning,0830.6,5.00,000.00,029.3,026.3,000.0,037.6,030.9,19.9,0000.0,0007.50,0003.90,0003.45
2023-07-11 05:51:00,SystemResetWarning,0830.5,5.00,000.00,029.3,025.4,000.0,037.5,030.7,19.7,0000.0,0007.58,0003.89,0003.44
2023-07-11 05:52:00,SystemResetWarning,0830.5,5.02,000.00,029.2,025.5,000.0,037.5,030.4,19.8,0000.0,0007.03,0003.84,0003.43
2023-07-11 05:53:00,SystemResetWarning,0830.6,5.00,000.00,029.1,025.8,000.0,037.5,030.4,20.1,0000.0,0006.83,0003.81,0003.43
2023-07-11 05:54:00,SystemResetWarning,0830.6,5.00,000.00,029.1,026.2,000.0,037.6,030.5,20.1,0000.0,0006.83,0003.80,0003.42
2023-07-11 05:55:00,SystemResetWarning,0830.6,5.00,000.00,029.1,026.6,000.0,037.6,030.6,20.4,0000.0,0006.81,0003.82,0003.43
2023-07-11 05:56:00,SystemResetWarning,0830.6,5.00,000.00,029.1,027.0,000.0,037.6,030.7,20.4,0000.0,0006.75,0003.86,0003.44
2023-07-11 05:57:00,SystemResetWarning,0830.7,4.99,000.00,029.1,027.2,000.0,037.6,030.7,20.5,0000.0,0006.96,0003.88,0003.43
2023-07-11 05:58:00,SystemResetWarning,0830.7,5.00,000.00,029.2,027.5,000.0,037.6,030.8,20.6,0000.0,0007.13,0003.89,0003.42
2023-07-11 05:59:00,SystemResetWarning,0830.7,5.01,000.00,029.2,027.7,000.0,037.6,030.8,20.5,0000.0,0007.90,0003.91,0003.41
